Date_Time,Julian_Date,Latitude,Longitude,Instrument_Depth,U,V,Speed,Direction
(yyyy-mm-dd hh:mn:ss UTC),(JD),(+ deg. North),(+ deg. East),(m),(cm/s),(cm/s),(cm/s),(deg True)
1981-12-15 23:30:00 UTC,2444954.479167,29.6417,-93.6667,0037,8.17,12.58,15.0000,33.0000
1981-12-16 00:00:00 UTC,2444954.500000,29.6417,-93.6667,0037,7.64,10.52,13.0000,36.0000
1981-12-16 00:30:00 UTC,2444954.520833,29.6417,-93.6667,0037,6.47,8.90,11.0000,36.0000
1981-12-16 01:00:00 UTC,2444954.541667,29.6417,-93.6667,0037,5.99,9.23,11.0000,33.0000
1981-12-16 01:30:00 UTC,2444954.562500,29.6417,-93.6667,0037,5.74,8.19,10.0000,35.0000
1981-12-16 02:00:00 UTC,2444954.583333,29.6417,-93.6667,0037,5.90,6.79,9.0000,41.0000
1981-12-16 02:30:00 UTC,2444954.604167,29.6417,-93.6667,0037,5.46,5.85,8.0000,43.0000
1981-12-16 03:00:00 UTC,2444954.625000,29.6417,-93.6667,0037,6.36,6.36,9.0000,45.0000
1981-12-16 03:30:00 UTC,2444954.645833,29.6417,-93.6667,0037,7.19,5.42,9.0000,53.0000
1981-12-16 04:00:00 UTC,2444954.666667,29.6417,-93.6667,0037,8.02,4.09,9.0000,63.0000
1981-12-16 04:30:00 UTC,2444954.687500,29.6417,-93.6667,0037,8.34,3.37,9.0000,68.0000
1981-12-16 05:00:00 UTC,2444954.708333,29.6417,-93.6667,0037,8.51,2.93,9.0000,71.0000
1981-12-16 05:30:00 UTC,2444954.729167,29.6417,-93.6667,0037,8.77,2.02,9.0000,77.0000
1981-12-16 06:00:00 UTC,2444954.750000,29.6417,-93.6667,0037,9.78,2.08,10.0000,78.0000
1981-12-16 06:30:00 UTC,2444954.770833,29.6417,-93.6667,0037,10.40,3.58,11.0000,71.0000
1981-12-16 07:00:00 UTC,2444954.791667,29.6417,-93.6667,0037,11.20,4.30,12.0000,69.0000
1981-12-16 07:30:00 UTC,2444954.812500,29.6417,-93.6667,0037,11.54,3.31,12.0000,74.0000
1981-12-16 08:00:00 UTC,2444954.833333,29.6417,-93.6667,0037,11.64,2.90,12.0000,76.0000
1981-12-16 08:30:00 UTC,2444954.854167,29.6417,-93.6667,0037,11.54,3.31,12.0000,74.0000
1981-12-16 09:00:00 UTC,2444954.875000,29.6417,-93.6667,0037,10.72,2.47,11.0000,77.0000
1981-12-16 09:30:00 UTC,2444954.895833,29.6417,-93.6667,0037,9.95,1.05,10.0000,84.0000
1981-12-16 10:00:00 UTC,2444954.916667,29.6417,-93.6667,0037,10.00,0.17,10.0000,89.0000
1981-12-16 10:30:00 UTC,2444954.937500,29.6417,-93.6667,0037,9.93,-1.22,10.0000,97.0000
1981-12-16 11:00:00 UTC,2444954.958333,29.6417,-93.6667,0037,8.51,-2.93,9.0000,109.0000
1981-12-16 11:30:00 UTC,2444954.979167,29.6417,-93.6667,0037,6.93,-4.00,8.0000,120.0000
1981-12-16 12:00:00 UTC,2444955.000000,29.6417,-93.6667,0037,5.28,-4.59,7.0000,131.0000
1981-12-16 12:30:00 UTC,2444955.020833,29.6417,-93.6667,0037,4.86,-5.04,7.0000,136.0000
1981-12-16 13:00:00 UTC,2444955.041667,29.6417,-93.6667,0037,4.77,-5.12,7.0000,137.0000
1981-12-16 13:30:00 UTC,2444955.062500,29.6417,-93.6667,0037,4.68,-5.20,7.0000,138.0000
1981-12-16 14:00:00 UTC,2444955.083333,29.6417,-93.6667,0037,3.78,-4.66,6.0000,141.0000
1981-12-16 14:30:00 UTC,2444955.104167,29.6417,-93.6667,0037,3.69,-4.73,6.0000,142.0000
1981-12-16 15:00:00 UTC,2444955.125000,29.6417,-93.6667,0037,2.94,-4.05,5.0000,144.0000
1981-12-16 15:30:00 UTC,2444955.145833,29.6417,-93.6667,0037,2.29,-3.28,4.0000,145.0000
1981-12-16 16:00:00 UTC,2444955.166667,29.6417,-93.6667,0037,1.63,-2.52,3.0000,147.0000
1981-12-16 16:30:00 UTC,2444955.187500,29.6417,-93.6667,0037,0.62,-2.93,3.0000,168.0000
1981-12-16 17:00:00 UTC,2444955.208333,29.6417,-93.6667,0037,-0.76,-3.93,4.0000,191.0000
1981-12-16 17:30:00 UTC,2444955.229167,29.6417,-93.6667,0037,-1.88,-3.53,4.0000,208.0000
1981-12-16 18:00:00 UTC,2444955.250000,29.6417,-93.6667,0037,-2.83,-2.83,4.0000,225.0000
1981-12-16 18:30:00 UTC,2444955.270833,29.6417,-93.6667,0037,-3.32,-2.24,4.0000,236.0000
1981-12-16 19:00:00 UTC,2444955.291667,29.6417,-93.6667,0037,-4.53,-2.11,5.0000,245.0000
1981-12-16 19:30:00 UTC,2444955.312500,29.6417,-93.6667,0037,-4.83,-1.29,5.0000,255.0000
1981-12-16 20:00:00 UTC,2444955.333333,29.6417,-93.6667,0037,-5.96,-0.73,6.0000,263.0000
1981-12-16 20:30:00 UTC,2444955.354167,29.6417,-93.6667,0037,-7.00,0.24,7.0000,272.0000
1981-12-16 21:00:00 UTC,2444955.375000,29.6417,-93.6667,0037,-6.82,1.57,7.0000,283.0000
1981-12-16 21:30:00 UTC,2444955.395833,29.6417,-93.6667,0037,-6.49,2.62,7.0000,292.0000
1981-12-16 22:00:00 UTC,2444955.416667,29.6417,-93.6667,0037,-6.24,3.18,7.0000,297.0000
1981-12-16 22:30:00 UTC,2444955.437500,29.6417,-93.6667,0037,-5.94,3.71,7.0000,302.0000
1981-12-16 23:00:00 UTC,2444955.458333,29.6417,-93.6667,0037,-5.94,3.71,7.0000,302.0000
1981-12-16 23:30:00 UTC,2444955.479167,29.6417,-93.6667,0037,-6.00,3.61,7.0000,301.0000
1981-12-17 00:00:00 UTC,2444955.500000,29.6417,-93.6667,0037,-6.78,4.24,8.0000,302.0000
1981-12-17 00:30:00 UTC,2444955.520833,29.6417,-93.6667,0037,-8.09,3.95,9.0000,296.0000
1981-12-17 01:00:00 UTC,2444955.541667,29.6417,-93.6667,0037,-9.61,2.76,10.0000,286.0000
1981-12-17 01:30:00 UTC,2444955.562500,29.6417,-93.6667,0037,-10.89,1.53,11.0000,278.0000
1981-12-17 02:00:00 UTC,2444955.583333,29.6417,-93.6667,0037,-9.99,0.35,10.0000,272.0000
1981-12-17 02:30:00 UTC,2444955.604167,29.6417,-93.6667,0037,-9.93,-1.22,10.0000,263.0000
1981-12-17 03:00:00 UTC,2444955.625000,29.6417,-93.6667,0037,-11.64,-2.90,12.0000,256.0000
1981-12-17 03:30:00 UTC,2444955.645833,29.6417,-93.6667,0037,-12.43,-3.80,13.0000,253.0000
1981-12-17 04:00:00 UTC,2444955.666667,29.6417,-93.6667,0037,-12.29,-4.23,13.0000,251.0000
1981-12-17 04:30:00 UTC,2444955.687500,29.6417,-93.6667,0037,-12.89,-5.47,14.0000,247.0000
1981-12-17 05:00:00 UTC,2444955.708333,29.6417,-93.6667,0037,-11.68,-5.70,13.0000,244.0000
1981-12-17 05:30:00 UTC,2444955.729167,29.6417,-93.6667,0037,-10.79,-5.26,12.0000,244.0000
1981-12-17 06:00:00 UTC,2444955.750000,29.6417,-93.6667,0037,-9.34,-3.58,10.0000,249.0000
1981-12-17 06:30:00 UTC,2444955.770833,29.6417,-93.6667,0037,-9.70,-2.42,10.0000,256.0000
1981-12-17 07:00:00 UTC,2444955.791667,29.6417,-93.6667,0037,-9.93,-1.22,10.0000,263.0000
1981-12-17 07:30:00 UTC,2444955.812500,29.6417,-93.6667,0037,-7.94,-0.97,8.0000,263.0000
1981-12-17 08:00:00 UTC,2444955.833333,29.6417,-93.6667,0037,-6.89,-1.22,7.0000,260.0000
1981-12-17 08:30:00 UTC,2444955.854167,29.6417,-93.6667,0037,-7.00,-0.12,7.0000,269.0000
1981-12-17 09:00:00 UTC,2444955.875000,29.6417,-93.6667,0037,-6.85,1.46,7.0000,282.0000
1981-12-17 09:30:00 UTC,2444955.895833,29.6417,-93.6667,0037,-6.49,2.62,7.0000,292.0000
1981-12-17 10:00:00 UTC,2444955.916667,29.6417,-93.6667,0037,-7.06,3.76,8.0000,298.0000
1981-12-17 10:30:00 UTC,2444955.937500,29.6417,-93.6667,0037,-6.06,3.50,7.0000,300.0000
1981-12-17 11:00:00 UTC,2444955.958333,29.6417,-93.6667,0037,-6.06,3.50,7.0000,300.0000
1981-12-17 11:30:00 UTC,2444955.979167,29.6417,-93.6667,0037,-5.87,3.81,7.0000,303.0000
1981-12-17 12:00:00 UTC,2444956.000000,29.6417,-93.6667,0037,-5.59,4.21,7.0000,307.0000
1981-12-17 12:30:00 UTC,2444956.020833,29.6417,-93.6667,0037,-5.20,4.68,7.0000,312.0000
1981-12-17 13:00:00 UTC,2444956.041667,29.6417,-93.6667,0037,-4.59,5.28,7.0000,319.0000
1981-12-17 13:30:00 UTC,2444956.062500,29.6417,-93.6667,0037,-3.61,6.00,7.0000,329.0000
1981-12-17 14:00:00 UTC,2444956.083333,29.6417,-93.6667,0037,-4.23,7.95,9.0000,332.0000
1981-12-17 14:30:00 UTC,2444956.104167,29.6417,-93.6667,0037,-4.38,8.99,10.0000,334.0000
1981-12-17 15:00:00 UTC,2444956.125000,29.6417,-93.6667,0037,-4.09,8.02,9.0000,333.0000
1981-12-17 15:30:00 UTC,2444956.145833,29.6417,-93.6667,0037,-5.94,3.71,7.0000,302.0000
1981-12-17 16:00:00 UTC,2444956.166667,29.6417,-93.6667,0037,-9.90,-1.39,10.0000,262.0000
1981-12-17 16:30:00 UTC,2444956.187500,29.6417,-93.6667,0037,-11.54,-3.31,12.0000,254.0000
1981-12-17 17:00:00 UTC,2444956.208333,29.6417,-93.6667,0037,-12.43,-3.80,13.0000,253.0000
1981-12-17 17:30:00 UTC,2444956.229167,29.6417,-93.6667,0037,-12.36,-4.02,13.0000,252.0000
1981-12-17 18:00:00 UTC,2444956.250000,29.6417,-93.6667,0037,-11.35,-3.91,12.0000,251.0000
1981-12-17 18:30:00 UTC,2444956.270833,29.6417,-93.6667,0037,-11.28,-4.10,12.0000,250.0000
1981-12-17 19:00:00 UTC,2444956.291667,29.6417,-93.6667,0037,-11.28,-4.10,12.0000,250.0000
1981-12-17 19:30:00 UTC,2444956.312500,29.6417,-93.6667,0037,-11.64,-2.90,12.0000,256.0000
1981-12-17 20:00:00 UTC,2444956.333333,29.6417,-93.6667,0037,-11.85,-1.88,12.0000,261.0000
1981-12-17 20:30:00 UTC,2444956.354167,29.6417,-93.6667,0037,-11.95,-1.05,12.0000,265.0000
1981-12-17 21:00:00 UTC,2444956.375000,29.6417,-93.6667,0037,-12.00,0.21,12.0000,271.0000
1981-12-17 21:30:00 UTC,2444956.395833,29.6417,-93.6667,0037,-11.91,1.46,12.0000,277.0000
1981-12-17 22:00:00 UTC,2444956.416667,29.6417,-93.6667,0037,-10.72,2.47,11.0000,283.0000
1981-12-17 22:30:00 UTC,2444956.437500,29.6417,-93.6667,0037,-9.34,3.58,10.0000,291.0000
1981-12-17 23:00:00 UTC,2444956.458333,29.6417,-93.6667,0037,-9.21,3.91,10.0000,293.0000
1981-12-17 23:30:00 UTC,2444956.479167,29.6417,-93.6667,0037,-9.51,3.09,10.0000,288.0000
1981-12-18 00:00:00 UTC,2444956.500000,29.6417,-93.6667,0037,-9.61,2.76,10.0000,286.0000
1981-12-18 00:30:00 UTC,2444956.520833,29.6417,-93.6667,0037,-11.69,2.70,12.0000,283.0000
1981-12-18 01:00:00 UTC,2444956.541667,29.6417,-93.6667,0037,-12.95,1.13,13.0000,275.0000
1981-12-18 01:30:00 UTC,2444956.562500,29.6417,-93.6667,0037,-12.99,0.45,13.0000,272.0000
1981-12-18 02:00:00 UTC,2444956.583333,29.6417,-93.6667,0037,-14.00,0.24,14.0000,271.0000
1981-12-18 02:30:00 UTC,2444956.604167,29.6417,-93.6667,0037,-13.99,-0.49,14.0000,268.0000
1981-12-18 03:00:00 UTC,2444956.625000,29.6417,-93.6667,0037,-13.95,-1.22,14.0000,265.0000
1981-12-18 03:30:00 UTC,2444956.645833,29.6417,-93.6667,0037,-12.87,-1.81,13.0000,262.0000
1981-12-18 04:00:00 UTC,2444956.666667,29.6417,-93.6667,0037,-11.69,-2.70,12.0000,257.0000
1981-12-18 04:30:00 UTC,2444956.687500,29.6417,-93.6667,0037,-9.66,-2.59,10.0000,255.0000
1981-12-18 05:00:00 UTC,2444956.708333,29.6417,-93.6667,0037,-9.51,-3.09,10.0000,252.0000
1981-12-18 05:30:00 UTC,2444956.729167,29.6417,-93.6667,0037,-8.28,-3.52,9.0000,247.0000
1981-12-18 06:00:00 UTC,2444956.750000,29.6417,-93.6667,0037,-7.25,-3.38,8.0000,245.0000
1981-12-18 06:30:00 UTC,2444956.770833,29.6417,-93.6667,0037,-5.35,-2.72,6.0000,243.0000
1981-12-18 07:00:00 UTC,2444956.791667,29.6417,-93.6667,0037,-5.20,-3.00,6.0000,240.0000
1981-12-18 07:30:00 UTC,2444956.812500,29.6417,-93.6667,0037,-5.14,-3.09,6.0000,239.0000
1981-12-18 08:00:00 UTC,2444956.833333,29.6417,-93.6667,0037,-4.41,-2.35,5.0000,242.0000
1981-12-18 08:30:00 UTC,2444956.854167,29.6417,-93.6667,0037,-4.89,-1.04,5.0000,258.0000
1981-12-18 09:00:00 UTC,2444956.875000,29.6417,-93.6667,0037,-5.00,0.17,5.0000,272.0000
1981-12-18 09:30:00 UTC,2444956.895833,29.6417,-93.6667,0037,-4.95,0.70,5.0000,278.0000
1981-12-18 10:00:00 UTC,2444956.916667,29.6417,-93.6667,0037,-3.88,0.97,4.0000,284.0000
1981-12-18 10:30:00 UTC,2444956.937500,29.6417,-93.6667,0037,-2.52,1.63,3.0000,303.0000
1981-12-18 11:00:00 UTC,2444956.958333,29.6417,-93.6667,0037,-1.18,1.62,2.0000,324.0000
1981-12-18 11:30:00 UTC,2444956.979167,29.6417,-93.6667,0037,-0.71,0.71,1.0000,315.0000
1981-12-18 12:00:00 UTC,2444957.000000,29.6417,-93.6667,0037,-0.68,0.73,1.0000,317.0000
1981-12-18 12:30:00 UTC,2444957.020833,29.6417,-93.6667,0037,-1.00,1.73,2.0000,330.0000
1981-12-18 13:00:00 UTC,2444957.041667,29.6417,-93.6667,0037,-1.97,2.26,3.0000,319.0000
1981-12-18 13:30:00 UTC,2444957.062500,29.6417,-93.6667,0037,-2.40,1.81,3.0000,307.0000
1981-12-18 14:00:00 UTC,2444957.083333,29.6417,-93.6667,0037,-2.62,1.45,3.0000,299.0000
1981-12-18 14:30:00 UTC,2444957.104167,29.6417,-93.6667,0037,-3.80,1.24,4.0000,288.0000
1981-12-18 15:00:00 UTC,2444957.125000,29.6417,-93.6667,0037,-3.95,0.63,4.0000,279.0000
1981-12-18 15:30:00 UTC,2444957.145833,29.6417,-93.6667,0037,-3.99,0.21,4.0000,273.0000
1981-12-18 16:00:00 UTC,2444957.166667,29.6417,-93.6667,0037,-1.99,0.17,2.0000,275.0000
1981-12-18 16:30:00 UTC,2444957.187500,29.6417,-93.6667,0037,-0.88,0.47,1.0000,298.0000
1981-12-18 17:00:00 UTC,2444957.208333,29.6417,-93.6667,0037,-0.54,0.84,1.0000,327.0000
1981-12-18 17:30:00 UTC,2444957.229167,29.6417,-93.6667,0037,-0.63,0.78,1.0000,321.0000
1981-12-18 18:00:00 UTC,2444957.250000,29.6417,-93.6667,0037,-0.00,0.00,0.0000,305.0000
1981-12-18 18:30:00 UTC,2444957.270833,29.6417,-93.6667,0037,0.87,-0.50,1.0000,120.0000
1981-12-18 19:00:00 UTC,2444957.291667,29.6417,-93.6667,0037,0.87,-0.50,1.0000,120.0000
1981-12-18 19:30:00 UTC,2444957.312500,29.6417,-93.6667,0037,0.77,-0.64,1.0000,130.0000
1981-12-18 20:00:00 UTC,2444957.333333,29.6417,-93.6667,0037,0.94,-1.77,2.0000,152.0000
1981-12-18 20:30:00 UTC,2444957.354167,29.6417,-93.6667,0037,0.58,-1.91,2.0000,163.0000
1981-12-18 21:00:00 UTC,2444957.375000,29.6417,-93.6667,0037,0.10,-0.99,1.0000,174.0000
1981-12-18 21:30:00 UTC,2444957.395833,29.6417,-93.6667,0037,-0.00,-0.00,0.0000,190.0000
1981-12-18 22:00:00 UTC,2444957.416667,29.6417,-93.6667,0037,0.00,0.00,0.0000,21.0000
1981-12-18 22:30:00 UTC,2444957.437500,29.6417,-93.6667,0037,0.53,0.85,1.0000,32.0000
1981-12-18 23:00:00 UTC,2444957.458333,29.6417,-93.6667,0037,1.64,1.15,2.0000,55.0000
1981-12-18 23:30:00 UTC,2444957.479167,29.6417,-93.6667,0037,2.90,0.78,3.0000,75.0000
1981-12-19 00:00:00 UTC,2444957.500000,29.6417,-93.6667,0037,3.91,0.83,4.0000,78.0000
1981-12-19 00:30:00 UTC,2444957.520833,29.6417,-93.6667,0037,3.86,1.04,4.0000,75.0000
1981-12-19 01:00:00 UTC,2444957.541667,29.6417,-93.6667,0037,1.90,0.62,2.0000,72.0000
1981-12-19 01:30:00 UTC,2444957.562500,29.6417,-93.6667,0037,-0.00,0.00,0.0000,349.0000
1981-12-19 02:00:00 UTC,2444957.583333,29.6417,-93.6667,0037,-0.71,0.71,1.0000,315.0000
1981-12-19 02:30:00 UTC,2444957.604167,29.6417,-93.6667,0037,-0.44,0.90,1.0000,334.0000
1981-12-19 03:00:00 UTC,2444957.625000,29.6417,-93.6667,0037,-0.44,0.90,1.0000,334.0000
1981-12-19 03:30:00 UTC,2444957.645833,29.6417,-93.6667,0037,-0.98,0.19,1.0000,281.0000
1981-12-19 04:00:00 UTC,2444957.666667,29.6417,-93.6667,0037,-2.96,-0.47,3.0000,261.0000
1981-12-19 04:30:00 UTC,2444957.687500,29.6417,-93.6667,0037,-2.92,-0.67,3.0000,257.0000
1981-12-19 05:00:00 UTC,2444957.708333,29.6417,-93.6667,0037,-2.80,-1.08,3.0000,249.0000
1981-12-19 05:30:00 UTC,2444957.729167,29.6417,-93.6667,0037,-3.65,-1.63,4.0000,246.0000
1981-12-19 06:00:00 UTC,2444957.750000,29.6417,-93.6667,0037,-4.49,-2.19,5.0000,244.0000
1981-12-19 06:30:00 UTC,2444957.770833,29.6417,-93.6667,0037,-4.41,-2.35,5.0000,242.0000
1981-12-19 07:00:00 UTC,2444957.791667,29.6417,-93.6667,0037,-5.14,-3.09,6.0000,239.0000
1981-12-19 07:30:00 UTC,2444957.812500,29.6417,-93.6667,0037,-5.66,-4.11,7.0000,234.0000
1981-12-19 08:00:00 UTC,2444957.833333,29.6417,-93.6667,0037,-6.39,-4.81,8.0000,233.0000
1981-12-19 08:30:00 UTC,2444957.854167,29.6417,-93.6667,0037,-7.09,-5.54,9.0000,232.0000
1981-12-19 09:00:00 UTC,2444957.875000,29.6417,-93.6667,0037,-7.37,-5.16,9.0000,235.0000
1981-12-19 09:30:00 UTC,2444957.895833,29.6417,-93.6667,0037,-6.86,-4.12,8.0000,239.0000
1981-12-19 10:00:00 UTC,2444957.916667,29.6417,-93.6667,0037,-5.73,-4.02,7.0000,235.0000
1981-12-19 10:30:00 UTC,2444957.937500,29.6417,-93.6667,0037,-5.73,-4.02,7.0000,235.0000
1981-12-19 11:00:00 UTC,2444957.958333,29.6417,-93.6667,0037,-6.39,-2.85,7.0000,246.0000
1981-12-19 11:30:00 UTC,2444957.979167,29.6417,-93.6667,0037,-7.79,-1.80,8.0000,257.0000
1981-12-19 12:00:00 UTC,2444958.000000,29.6417,-93.6667,0037,-8.93,-1.10,9.0000,263.0000
1981-12-19 12:30:00 UTC,2444958.020833,29.6417,-93.6667,0037,-8.99,-0.31,9.0000,268.0000
1981-12-19 13:00:00 UTC,2444958.041667,29.6417,-93.6667,0037,-9.99,-0.35,10.0000,268.0000
1981-12-19 13:30:00 UTC,2444958.062500,29.6417,-93.6667,0037,-11.98,-0.63,12.0000,267.0000
1981-12-19 14:00:00 UTC,2444958.083333,29.6417,-93.6667,0037,-12.98,-0.68,13.0000,267.0000
1981-12-19 14:30:00 UTC,2444958.104167,29.6417,-93.6667,0037,-14.98,-0.79,15.0000,267.0000
1981-12-19 15:00:00 UTC,2444958.125000,29.6417,-93.6667,0037,-16.94,-1.48,17.0000,265.0000
1981-12-19 15:30:00 UTC,2444958.145833,29.6417,-93.6667,0037,-17.87,-2.19,18.0000,263.0000
1981-12-19 16:00:00 UTC,2444958.166667,29.6417,-93.6667,0037,-19.81,-2.78,20.0000,262.0000
1981-12-19 16:30:00 UTC,2444958.187500,29.6417,-93.6667,0037,-19.81,-2.78,20.0000,262.0000
1981-12-19 17:00:00 UTC,2444958.208333,29.6417,-93.6667,0037,-19.75,-3.13,20.0000,261.0000
1981-12-19 17:30:00 UTC,2444958.229167,29.6417,-93.6667,0037,-18.82,-2.64,19.0000,262.0000
1981-12-19 18:00:00 UTC,2444958.250000,29.6417,-93.6667,0037,-16.87,-2.07,17.0000,263.0000
1981-12-19 18:30:00 UTC,2444958.270833,29.6417,-93.6667,0037,-14.77,-2.60,15.0000,260.0000
1981-12-19 19:00:00 UTC,2444958.291667,29.6417,-93.6667,0037,-13.46,-3.86,14.0000,254.0000
1981-12-19 19:30:00 UTC,2444958.312500,29.6417,-93.6667,0037,-14.10,-5.13,15.0000,250.0000
1981-12-19 20:00:00 UTC,2444958.333333,29.6417,-93.6667,0037,-15.13,-5.21,16.0000,251.0000
1981-12-19 20:30:00 UTC,2444958.354167,29.6417,-93.6667,0037,-15.38,-4.41,16.0000,254.0000
1981-12-19 21:00:00 UTC,2444958.375000,29.6417,-93.6667,0037,-15.38,-4.41,16.0000,254.0000
1981-12-19 21:30:00 UTC,2444958.395833,29.6417,-93.6667,0037,-15.52,-3.87,16.0000,256.0000
1981-12-19 22:00:00 UTC,2444958.416667,29.6417,-93.6667,0037,-15.80,-2.50,16.0000,261.0000
1981-12-19 22:30:00 UTC,2444958.437500,29.6417,-93.6667,0037,-16.83,-2.37,17.0000,262.0000
1981-12-19 23:00:00 UTC,2444958.458333,29.6417,-93.6667,0037,-16.87,-2.07,17.0000,263.0000
1981-12-19 23:30:00 UTC,2444958.479167,29.6417,-93.6667,0037,-14.98,-0.79,15.0000,267.0000
1981-12-20 00:00:00 UTC,2444958.500000,29.6417,-93.6667,0037,-11.99,0.42,12.0000,272.0000
1981-12-20 00:30:00 UTC,2444958.520833,29.6417,-93.6667,0037,-10.00,-0.17,10.0000,269.0000
1981-12-20 01:00:00 UTC,2444958.541667,29.6417,-93.6667,0037,-9.93,-1.22,10.0000,263.0000
1981-12-20 01:30:00 UTC,2444958.562500,29.6417,-93.6667,0037,-11.88,-1.67,12.0000,262.0000
1981-12-20 02:00:00 UTC,2444958.583333,29.6417,-93.6667,0037,-14.77,-2.60,15.0000,260.0000
1981-12-20 02:30:00 UTC,2444958.604167,29.6417,-93.6667,0037,-15.71,-3.05,16.0000,259.0000
1981-12-20 03:00:00 UTC,2444958.625000,29.6417,-93.6667,0037,-15.71,-3.05,16.0000,259.0000
1981-12-20 03:30:00 UTC,2444958.645833,29.6417,-93.6667,0037,-17.47,-4.35,18.0000,256.0000
1981-12-20 04:00:00 UTC,2444958.666667,29.6417,-93.6667,0037,-20.19,-5.79,21.0000,254.0000
1981-12-20 04:30:00 UTC,2444958.687500,29.6417,-93.6667,0037,-20.38,-5.08,21.0000,256.0000
1981-12-20 05:00:00 UTC,2444958.708333,29.6417,-93.6667,0037,-18.51,-4.27,19.0000,257.0000
1981-12-20 05:30:00 UTC,2444958.729167,29.6417,-93.6667,0037,-16.42,-4.40,17.0000,255.0000
1981-12-20 06:00:00 UTC,2444958.750000,29.6417,-93.6667,0037,-15.30,-4.68,16.0000,253.0000
1981-12-20 06:30:00 UTC,2444958.770833,29.6417,-93.6667,0037,-15.13,-5.21,16.0000,251.0000
1981-12-20 07:00:00 UTC,2444958.791667,29.6417,-93.6667,0037,-14.62,-6.51,16.0000,246.0000
1981-12-20 07:30:00 UTC,2444958.812500,29.6417,-93.6667,0037,-15.15,-7.72,17.0000,243.0000
1981-12-20 08:00:00 UTC,2444958.833333,29.6417,-93.6667,0037,-16.31,-7.61,18.0000,245.0000
1981-12-20 08:30:00 UTC,2444958.854167,29.6417,-93.6667,0037,-16.91,-6.16,18.0000,250.0000
1981-12-20 09:00:00 UTC,2444958.875000,29.6417,-93.6667,0037,-17.21,-5.26,18.0000,253.0000
1981-12-20 09:30:00 UTC,2444958.895833,29.6417,-93.6667,0037,-17.30,-4.96,18.0000,254.0000
1981-12-20 10:00:00 UTC,2444958.916667,29.6417,-93.6667,0037,-17.30,-4.96,18.0000,254.0000
1981-12-20 10:30:00 UTC,2444958.937500,29.6417,-93.6667,0037,-16.34,-4.69,17.0000,254.0000
1981-12-20 11:00:00 UTC,2444958.958333,29.6417,-93.6667,0037,-16.42,-4.40,17.0000,255.0000
1981-12-20 11:30:00 UTC,2444958.979167,29.6417,-93.6667,0037,-17.47,-4.35,18.0000,256.0000
1981-12-20 12:00:00 UTC,2444959.000000,29.6417,-93.6667,0037,-18.65,-3.63,19.0000,259.0000
1981-12-20 12:30:00 UTC,2444959.020833,29.6417,-93.6667,0037,-19.81,-2.78,20.0000,262.0000
1981-12-20 13:00:00 UTC,2444959.041667,29.6417,-93.6667,0037,-19.81,-2.78,20.0000,262.0000
1981-12-20 13:30:00 UTC,2444959.062500,29.6417,-93.6667,0037,-21.84,-2.68,22.0000,263.0000
1981-12-20 14:00:00 UTC,2444959.083333,29.6417,-93.6667,0037,-24.86,-2.61,25.0000,264.0000
1981-12-20 14:30:00 UTC,2444959.104167,29.6417,-93.6667,0037,-26.85,-2.82,27.0000,264.0000
1981-12-20 15:00:00 UTC,2444959.125000,29.6417,-93.6667,0037,-27.85,-2.93,28.0000,264.0000
1981-12-20 15:30:00 UTC,2444959.145833,29.6417,-93.6667,0037,-29.78,-3.66,30.0000,263.0000
1981-12-20 16:00:00 UTC,2444959.166667,29.6417,-93.6667,0037,-30.70,-4.31,31.0000,262.0000
1981-12-20 16:30:00 UTC,2444959.187500,29.6417,-93.6667,0037,-32.50,-5.73,33.0000,260.0000
1981-12-20 17:00:00 UTC,2444959.208333,29.6417,-93.6667,0037,-33.38,-6.49,34.0000,259.0000
1981-12-20 17:30:00 UTC,2444959.229167,29.6417,-93.6667,0037,-34.47,-6.08,35.0000,260.0000
1981-12-20 18:00:00 UTC,2444959.250000,29.6417,-93.6667,0037,-35.45,-6.25,36.0000,260.0000
1981-12-20 18:30:00 UTC,2444959.270833,29.6417,-93.6667,0037,-35.34,-6.87,36.0000,259.0000
1981-12-20 19:00:00 UTC,2444959.291667,29.6417,-93.6667,0037,-36.32,-7.06,37.0000,259.0000
1981-12-20 19:30:00 UTC,2444959.312500,29.6417,-93.6667,0037,-37.03,-8.55,38.0000,257.0000
1981-12-20 20:00:00 UTC,2444959.333333,29.6417,-93.6667,0037,-35.74,-9.58,37.0000,255.0000
1981-12-20 20:30:00 UTC,2444959.354167,29.6417,-93.6667,0037,-35.57,-10.20,37.0000,254.0000
1981-12-20 21:00:00 UTC,2444959.375000,29.6417,-93.6667,0037,-37.49,-10.75,39.0000,254.0000
1981-12-20 21:30:00 UTC,2444959.395833,29.6417,-93.6667,0037,-36.53,-10.47,38.0000,254.0000
1981-12-20 22:00:00 UTC,2444959.416667,29.6417,-93.6667,0037,-36.34,-11.11,38.0000,253.0000
1981-12-20 22:30:00 UTC,2444959.437500,29.6417,-93.6667,0037,-38.25,-11.69,40.0000,253.0000
1981-12-20 23:00:00 UTC,2444959.458333,29.6417,-93.6667,0037,-39.21,-11.99,41.0000,253.0000
1981-12-20 23:30:00 UTC,2444959.479167,29.6417,-93.6667,0037,-39.41,-11.30,41.0000,254.0000
1981-12-21 00:00:00 UTC,2444959.500000,29.6417,-93.6667,0037,-41.53,-11.13,43.0000,255.0000
1981-12-21 00:30:00 UTC,2444959.520833,29.6417,-93.6667,0037,-43.47,-11.65,45.0000,255.0000
1981-12-21 01:00:00 UTC,2444959.541667,29.6417,-93.6667,0037,-44.43,-11.91,46.0000,255.0000
1981-12-21 01:30:00 UTC,2444959.562500,29.6417,-93.6667,0037,-43.47,-11.65,45.0000,255.0000
1981-12-21 02:00:00 UTC,2444959.583333,29.6417,-93.6667,0037,-42.08,-12.86,44.0000,253.0000
1981-12-21 02:30:00 UTC,2444959.604167,29.6417,-93.6667,0037,-42.08,-12.86,44.0000,253.0000
1981-12-21 03:00:00 UTC,2444959.625000,29.6417,-93.6667,0037,-43.26,-12.40,45.0000,254.0000
1981-12-21 03:30:00 UTC,2444959.645833,29.6417,-93.6667,0037,-43.26,-12.40,45.0000,254.0000
1981-12-21 04:00:00 UTC,2444959.666667,29.6417,-93.6667,0037,-43.75,-14.21,46.0000,252.0000
1981-12-21 04:30:00 UTC,2444959.687500,29.6417,-93.6667,0037,-43.49,-14.98,46.0000,251.0000
1981-12-21 05:00:00 UTC,2444959.708333,29.6417,-93.6667,0037,-41.60,-14.33,44.0000,251.0000
1981-12-21 05:30:00 UTC,2444959.729167,29.6417,-93.6667,0037,-40.41,-14.71,43.0000,250.0000
1981-12-21 06:00:00 UTC,2444959.750000,29.6417,-93.6667,0037,-39.21,-15.05,42.0000,249.0000
1981-12-21 06:30:00 UTC,2444959.770833,29.6417,-93.6667,0037,-37.09,-14.98,40.0000,248.0000
1981-12-21 07:00:00 UTC,2444959.791667,29.6417,-93.6667,0037,-35.23,-14.24,38.0000,248.0000
1981-12-21 07:30:00 UTC,2444959.812500,29.6417,-93.6667,0037,-34.31,-13.86,37.0000,248.0000
1981-12-21 08:00:00 UTC,2444959.833333,29.6417,-93.6667,0037,-33.53,-15.64,37.0000,245.0000
1981-12-21 08:30:00 UTC,2444959.854167,29.6417,-93.6667,0037,-32.36,-15.78,36.0000,244.0000
1981-12-21 09:00:00 UTC,2444959.875000,29.6417,-93.6667,0037,-31.97,-14.24,35.0000,246.0000
1981-12-21 09:30:00 UTC,2444959.895833,29.6417,-93.6667,0037,-31.52,-12.74,34.0000,248.0000
1981-12-21 10:00:00 UTC,2444959.916667,29.6417,-93.6667,0037,-30.60,-12.36,33.0000,248.0000
1981-12-21 10:30:00 UTC,2444959.937500,29.6417,-93.6667,0037,-29.67,-11.99,32.0000,248.0000
1981-12-21 11:00:00 UTC,2444959.958333,29.6417,-93.6667,0037,-28.37,-9.77,30.0000,251.0000
1981-12-21 11:30:00 UTC,2444959.979167,29.6417,-93.6667,0037,-27.88,-7.99,29.0000,254.0000
1981-12-21 12:00:00 UTC,2444960.000000,29.6417,-93.6667,0037,-26.20,-6.53,27.0000,256.0000